Regional Weather Roundup
Issued by NWS

Home | Current Version | Previous Version | Graphics & Text | Print | Product List | Glossary On
Versions: 1 2 3 4 5 6 7 8 9 10 11 12 13 14 15 16 17 18 19 20 21 22 23 24 25 26 27 28 29 30 31 32 33 34 35 36 37 38 39 40 41 42 43 44 45 46 47 48 49 50
000
ASUS43 KLSX 251959
RWRMO

WEATHER SUMMARY FOR MISSOURI
NATIONAL WEATHER SERVICE SPRINGFIELD MO
300 PM CDT FRI JUL 25 2014

NOTE: "FAIR" INDICATES FEW OR NO CLOUDS BELOW 12,000 FEET WITH NO
       SIGNIFICANT WEATHER AND/OR OBSTRUCTIONS TO VISIBILITY.
       CURRENT SKY AND/OR WEATHER CONDITIONS ARE NOT AVAILABLE FOR
       CHILLICOTHE AND FARMINGTON.

MOZ001>031-035>038-043-044-053-054-252100-
...NORTHERN AND WESTERN MISSOURI...

CITY           SKY/WX    TMP DP  RH WIND       PRES   REMARKS
KANSAS CTY INT MOSUNNY   94  73  50 SW14      29.81F HX 103
KANSAS C DTWN  SUNNY     97  70  41 SW17G24   29.80F HX 103
LEE`S SUMMIT   SUNNY     93  73  52 SW10      29.84F HX 102
ST JOSEPH      SUNNY     94  75  54 S15       29.77F HX 105
CHILLICOTHE      N/A     88  74  63 SE13G25   29.81F HX  96
KIRKSVILLE     CLOUDY    74  65  73 SE20      29.88F

$$
MOZ066>068-077>081-088>096-101>105-252100-
...SOUTHWEST MISSOURI...

CITY           SKY/WX    TMP DP  RH WIND       PRES   REMARKS
SPRINGFIELD    SUNNY     90  69  50 S16       29.95F HX  94
JOPLIN         SUNNY     92  69  47 S16       29.92F HX  97

$$
MOZ032>034-039>042-045>050-055>058-069>072-252100-
...CENTRAL MISSOURI...

CITY           SKY/WX    TMP DP  RH WIND       PRES   REMARKS
COLUMBIA       PTSUNNY   85  68  56 SE16      29.94F
JEFFERSON CITY MOSUNNY   87  68  52 SE10      29.93S HX  90
ROLLA          MOSUNNY   89  64  43 S12       29.97R HX  90
SEDALIA        MOSUNNY   92  72  51 S14G21    29.89F HX  99
OSAGE BEACH    MOSUNNY   91  70  49 S9        29.93S HX  97

$$
MOZ051-052-059>065-252100-
...EAST CENTRAL MISSOURI...

CITY           SKY/WX    TMP DP  RH WIND       PRES   REMARKS
ST LOUIS INTL  TSTM      69  64  84 SE14      30.05F
SPIRIT OF STL  TSTM      70  62  76 SE7       30.00F
ST CHARLES     CLOUDY    66  64  93 SE12      29.99F

$$
MOZ072>076-082>087-097>100-106>115-252100-
...SOUTH CENTRAL AND SOUTHEAST MISSOURI...

CITY           SKY/WX    TMP DP  RH WIND       PRES   REMARKS
CAPE GIRARDEAU CLOUDY    79  61  53 CALM      30.04S
FARMINGTON     CLOUDY    77  61  57 SE5       30.09R
POPLAR BLUFF   PTSUNNY   82  59  45 CALM      30.01F
WEST PLAINS    SUNNY     83  66  56 SE12G18   30.02F

$$



USA.gov is the U.S. government's official web portal to all federal, state and local government web resources and services.